Snowfall_Accumulation
0.0 0.0 0.0 0.0 0.0 0.0 0.0 0.0 0.0 0.0 0.0 0.0 0.0 0.0 0.0 0.0 0.0 0.0 0.0 0.0 0.0 0.0 0.0 0.0 0.0 0.0 0.0
0.0 0.0 0.0 0.0 0.0 0.0 0.0 0.0 0.0 0.0 0.0 0.0 0.0 0.0 0.0 0.0 0.0 0.0 0.0 0.0 0.0 0.0 0.0 0.0 0.0 0.0 0.0
0.0 0.0 0.0 0.0 0.0 0.0 0.0 0.0 0.0 0.0 0.0 0.0 0.0 0.0 0.0 0.0 0.0 0.0 0.0 0.0 0.0 0.0 0.0 0.0 0.0 0.0 0.0
0.0 0.0 0.0 0.0 0.0 0.0 0.0 0.0 0.0 0.0 0.0 0.0 0.0 0.0 0.0 0.0 0.0 0.0 0.0 0.0 0.0 0.0 0.0 0.0 0.0 0.0 0.0
0.0 0.0 0.0 0.0 0.0 0.0 0.0 0.0 0.0 0.0 0.0 0.0 0.0 0.0 0.0 0.0 0.0 0.0 0.0 0.0 0.0 0.0 0.0 0.0 0.0 0.0 0.0
0.0 0.0 0.0 0.0 0.0 0.0 0.0 0.0 0.7 0.0 0.0 0.0 0.0 0.0 0.0 0.0 0.0 0.0 0.0 0.0 0.0 0.0 0.0 0.0 0.0 0.0 0.0
0.0 0.0 0.0 0.0 0.0 0.0 0.0 0.0 0.0 0.0 0.0 5.8 0.0 0.0 0.0 0.0 0.0 0.0 0.0 0.0 0.0 0.0 0.0 0.0 0.0 0.0 0.0
0.0 0.0 0.0 0.0 0.0 0.0 0.0 0.0 0.9 1.2 0.0 5.8 4.6 3.1 0.0 0.0 0.0 0.0 0.0 0.0 0.0 0.0 0.0 0.0 0.0 0.0 0.0
0.0 0.0 0.0 0.0 0.0 0.0 0.9 2.7 5.3 4.5 3.2 2.6 4.2 5.0 4.4 0.2 0.0 0.0 0.0 0.0 0.0 0.0 0.0 0.0 0.0 0.0 0.0
0.0 0.0 0.0 0.0 0.0 0.0 0.0 2.0 3.0 3.8 2.0 3.1 3.5 2.9 5.2 3.7 1.7 0.2 0.0 0.0 0.0 0.0 0.0 0.0 0.0 0.0 0.0
2.1 2.1 1.7 1.9 0.0 0.0 0.0 0.3 2.2 1.9 1.0 1.6 2.7 2.2 0.6 1.9 2.1 1.7 0.5 0.2 0.0 0.0 0.0 0.0 0.0 0.0 0.0
1.0 1.2 1.7 1.8 1.6 2.2 2.2 1.7 1.3 0.1 1.2 0.5 1.7 0.6 0.4 1.9 1.2 2.1 1.2 0.3 0.0 0.0 0.0 0.0 0.0 0.0 0.0
1.0 1.0 1.0 1.0 1.6 1.3 1.8 2.0 1.8 1.8 2.0 1.6 0.7 1.2 1.0 0.8 1.1 1.8 1.6 0.8 0.1 0.0 0.0 0.0 0.0 0.0 0.0
0.8 0.7 0.5 0.4 0.9 1.0 1.1 1.3 1.4 2.2 2.7 2.1 1.5 1.3 1.9 1.6 1.6 2.2 1.3 0.8 0.2 0.0 0.0 0.0 0.0 0.0 0.0
0.9 0.6 0.3 0.1 0.2 0.3 0.6 1.0 1.5 2.2 2.7 3.0 3.2 2.8 2.0 1.4 1.8 1.2 0.8 0.4 0.2 0.0 0.0 0.0 0.0 0.0 0.0
1.0 0.8 0.5 0.2 0.3 0.7 0.9 1.0 1.1 1.7 1.7 2.3 2.5 1.9 1.3 1.4 0.8 1.0 0.8 0.5 0.3 0.0 0.0 0.0 0.0 0.0 0.0
0.9 1.1 1.3 1.3 1.2 1.1 0.5 0.5 0.9 1.2 1.5 1.8 1.9 1.4 0.9 0.8 1.3 0.6 0.5 0.4 0.1 0.0 0.0 0.0 0.0 0.0 0.0